When you browse on this site, cookies collect data to enhance your experience and personalize the content and advertising you see.
Visit our Privacy Policy to learn more. By continuing to use the site, you agree to this use of cookies and data.
  • In Hungary
  • List of Countries
  • For 7 days
  • Water Temperature
  • Satellite Maps
  • Weather Map
  • News
  • Weather Widgets
  • user-avatar
    Login

    Hourly Weather Divjake

    Today, 19 February, Tuesday

    Time Temperature Precipitation Wind Pressure Humidity
    00:00 +10°C° 0 mm 1 mps 765 mmHg 72%
    01:00 +10°C° 0 mm 1 mps 765 mmHg 71%
    02:00 +9°C° 0 mm 1 mps 765 mmHg 71%
    03:00 +9°C° 0 mm 1 mps 764 mmHg 71%
    04:00 +9°C° 0 mm 1 mps 764 mmHg 71%
    05:00 +8°C° 0 mm 2 mps 764 mmHg 71%
    06:00 +8°C° 0 mm 2 mps 765 mmHg 71%
    07:00 +8°C° 0 mm 2 mps 765 mmHg 72%
    08:00 +10°C° 0 mm 2 mps 764 mmHg 66%
    09:00 +12°C° 0 mm 2 mps 764 mmHg 61%
    10:00 +14°C° 0 mm 2 mps 764 mmHg 55%
    11:00 +15°C° 0 mm 2 mps 764 mmHg 53%
    12:00 +16°C° 0 mm 2 mps 764 mmHg 51%
    13:00 +16°C° 0 mm 2 mps 764 mmHg 50%
    14:00 +16°C° 0 mm 2 mps 763 mmHg 53%
    15:00 +16°C° 0 mm 2 mps 763 mmHg 56%
    16:00 +15°C° 0 mm 2 mps 763 mmHg 60%
    17:00 +14°C° 0 mm 2 mps 763 mmHg 66%
    18:00 +12°C° 0 mm 1 mps 763 mmHg 73%
    19:00 +10°C° 0 mm 0 mps 764 mmHg 80%
    20:00 +11°C° 0 mm 1 mps 764 mmHg 81%
    21:00 +10°C° 0 mm 1 mps 764 mmHg 83%
    22:00 +10°C° 0 mm 1 mps 764 mmHg 84%
    23:00 +10°C° 0 mm 1 mps 764 mmHg 85%

    Tomorrow, 20 February, Wednesday

    Time Temperature Precipitation Wind Pressure Humidity
    00:00 +9°C° 0 mm 1 mps 764 mmHg 85%
    01:00 +9°C° 0 mm 1 mps 764 mmHg 86%
    02:00 +9°C° 0 mm 1 mps 764 mmHg 85%
    03:00 +8°C° 0 mm 2 mps 764 mmHg 85%
    04:00 +7°C° 0 mm 2 mps 764 mmHg 84%
    05:00 +7°C° 0 mm 2 mps 764 mmHg 83%
    06:00 +7°C° 0 mm 2 mps 764 mmHg 81%
    07:00 +7°C° 0 mm 2 mps 764 mmHg 80%
    08:00 +9°C° 0 mm 2 mps 764 mmHg 72%
    09:00 +12°C° 0 mm 1 mps 764 mmHg 65%
    10:00 +14°C° 0 mm 1 mps 764 mmHg 57%
    11:00 +14°C° 0 mm 1 mps 764 mmHg 56%
    12:00 +15°C° 0 mm 2 mps 764 mmHg 54%
    13:00 +16°C° 0 mm 2 mps 764 mmHg 53%
    14:00 +15°C° 0 mm 2 mps 764 mmHg 56%
    15:00 +14°C° 0 mm 3 mps 764 mmHg 59%
    16:00 +14°C° 0 mm 3 mps 764 mmHg 62%
    17:00 +12°C° 0 mm 3 mps 764 mmHg 69%
    18:00 +11°C° 0 mm 3 mps 764 mmHg 77%
    19:00 +10°C° 0 mm 3 mps 765 mmHg 84%
    20:00 +9°C° 0 mm 2 mps 765 mmHg 85%
    21:00 +9°C° 0 mm 2 mps 765 mmHg 87%
    22:00 +10°C° 0 mm 1 mps 766 mmHg 88%
    23:00 +9°C° 0 mm 1 mps 766 mmHg 87%

    Day after tomorrow, 21 February, Thursday

    Time Temperature Precipitation Wind Pressure Humidity
    00:00 +9°C° 0 mm 1 mps 766 mmHg 86%
    01:00 +9°C° 0 mm 1 mps 766 mmHg 85%
    02:00 +9°C° 0 mm 1 mps 766 mmHg 84%
    03:00 +9°C° 0 mm 1 mps 766 mmHg 82%
    04:00 +8°C° 0 mm 1 mps 766 mmHg 80%
    05:00 +8°C° 0 mm 1 mps 766 mmHg 78%
    06:00 +8°C° 0 mm 1 mps 766 mmHg 76%
    07:00 +8°C° 0 mm 1 mps 767 mmHg 74%
    08:00 +10°C° 0 mm 1 mps 767 mmHg 66%
    09:00 +12°C° 0 mm 1 mps 767 mmHg 58%
    10:00 +14°C° 0 mm 1 mps 767 mmHg 50%
    11:00 +15°C° 0 mm 2 mps 767 mmHg 48%
    12:00 +16°C° 0 mm 3 mps 767 mmHg 45%
    13:00 +17°C° 0 mm 4 mps 766 mmHg 43%
    14:00 +17°C° 0 mm 4 mps 766 mmHg 46%
    15:00 +15°C° 0 mm 4 mps 766 mmHg 50%
    16:00 +15°C° 0 mm 5 mps 766 mmHg 53%
    17:00 +13°C° 0 mm 4 mps 766 mmHg 60%
    18:00 +12°C° 0 mm 4 mps 766 mmHg 68%
    19:00 +10°C° 0 mm 3 mps 767 mmHg 75%
    20:00 +10°C° 0 mm 2 mps 767 mmHg 77%
    21:00 +10°C° 0 mm 2 mps 767 mmHg 79%
    22:00 +10°C° 0 mm 1 mps 767 mmHg 81%
    23:00 +10°C° 0 mm 1 mps 767 mmHg 81%

    22 February, Friday

    Time Temperature Precipitation Wind Pressure Humidity
    00:00 +10°C° 0 mm 1 mps 767 mmHg 81%
    01:00 +10°C° 0 mm 1 mps 767 mmHg 81%
    02:00 +9°C° 0 mm 1 mps 766 mmHg 81%
    03:00 +9°C° 0 mm 1 mps 766 mmHg 81%
    04:00 +9°C° 0 mm 1 mps 765 mmHg 81%
    05:00 +9°C° 0 mm 1 mps 765 mmHg 80%
    06:00 +9°C° 0 mm 1 mps 765 mmHg 80%
    07:00 +8°C° 0 mm 2 mps 765 mmHg 79%
    08:00 +10°C° 0 mm 1 mps 765 mmHg 76%
    09:00 +12°C° 0 mm 1 mps 765 mmHg 72%
    10:00 +13°C° 0 mm 1 mps 764 mmHg 68%
    11:00 +14°C° 0.1 mm 2 mps 764 mmHg 67%
    12:00 +14°C° 0.1 mm 2 mps 763 mmHg 65%
    13:00 +14°C° 0.1 mm 3 mps 762 mmHg 63%
    14:00 +14°C° 0 mm 3 mps 762 mmHg 64%
    15:00 +13°C° 0 mm 4 mps 762 mmHg 64%
    16:00 +13°C° 0 mm 4 mps 761 mmHg 65%
    17:00 +12°C° 0 mm 3 mps 761 mmHg 68%
    18:00 +11°C° 0 mm 3 mps 761 mmHg 72%
    19:00 +10°C° 0 mm 2 mps 761 mmHg 75%
    20:00 +10°C° 0 mm 2 mps 761 mmHg 76%
    21:00 +9°C° 0 mm 2 mps 761 mmHg 77%
    22:00 +9°C° 0 mm 2 mps 761 mmHg 78%
    23:00 +9°C° 0 mm 3 mps 761 mmHg 77%

    23 February, Saturday

    Time Temperature Precipitation Wind Pressure Humidity
    00:00 +8°C° 0 mm 3 mps 760 mmHg 75%
    01:00 +7°C° 0 mm 4 mps 760 mmHg 73%
    02:00 +7°C° 0 mm 5 mps 761 mmHg 72%
    03:00 +7°C° 0 mm 5 mps 761 mmHg 70%
    04:00 +6°C° 0 mm 5 mps 761 mmHg 69%
    05:00 +5°C° 0 mm 6 mps 761 mmHg 68%
    06:00 +5°C° 0 mm 6 mps 762 mmHg 67%
    07:00 +5°C° 0 mm 6 mps 762 mmHg 66%
    08:00 +6°C° 0 mm 7 mps 762 mmHg 56%
    09:00 +8°C° 0 mm 7 mps 762 mmHg 47%
    10:00 +10°C° 0 mm 8 mps 763 mmHg 38%
    11:00 +10°C° 0 mm 8 mps 763 mmHg 36%
    12:00 +10°C° 0 mm 9 mps 762 mmHg 33%
    13:00 +10°C° 0 mm 9 mps 762 mmHg 31%
    14:00 +8°C° 0 mm 10 mps 762 mmHg 31%
    15:00 +7°C° 0 mm 10 mps 762 mmHg 31%
    16:00 +6°C° 0 mm 10 mps 762 mmHg 32%
    17:00 +3°C° 0 mm 10 mps 763 mmHg 34%
    18:00 +2°C° 0 mm 9 mps 764 mmHg 36%
    19:00 +1°C° 0 mm 9 mps 764 mmHg 38%
    20:00 0°C° 0 mm 8 mps 765 mmHg 38%
    21:00 0°C° 0 mm 8 mps 765 mmHg 39%
    22:00 -1°C° 0 mm 7 mps 766 mmHg 39%
    23:00 -1°C° 0 mm 7 mps 766 mmHg 37%

    24 February, Sunday

    Time Temperature Precipitation Wind Pressure Humidity
    00:00 -2°C° 0 mm 7 mps 766 mmHg 35%
    01:00 -2°C° 0 mm 7 mps 766 mmHg 33%
    02:00 -2°C° 0 mm 7 mps 766 mmHg 32%
    03:00 -3°C° 0 mm 7 mps 766 mmHg 32%
    04:00 -3°C° 0 mm 7 mps 766 mmHg 31%
    05:00 -3°C° 0 mm 7 mps 766 mmHg 31%
    06:00 -3°C° 0 mm 7 mps 766 mmHg 31%
    07:00 -3°C° 0 mm 7 mps 766 mmHg 31%
    08:00 -1°C° 0 mm 7 mps 766 mmHg 29%
    09:00 +1°C° 0 mm 6 mps 766 mmHg 27%
    10:00 +3°C° 0 mm 6 mps 766 mmHg 25%
    11:00 +3°C° 0 mm 6 mps 766 mmHg 24%
    12:00 +4°C° 0 mm 6 mps 765 mmHg 24%
    13:00 +5°C° 0 mm 6 mps 765 mmHg 23%
    14:00 +5°C° 0 mm 7 mps 765 mmHg 24%
    15:00 +5°C° 0 mm 7 mps 765 mmHg 25%
    16:00 +5°C° 0 mm 7 mps 765 mmHg 26%
    17:00 +3°C° 0 mm 7 mps 765 mmHg 29%
    18:00 +2°C° 0 mm 7 mps 765 mmHg 33%
    19:00 0°C° 0 mm 7 mps 766 mmHg 36%
    20:00 -1°C° 0 mm 7 mps 766 mmHg 37%
    21:00 -1°C° 0 mm 7 mps 766 mmHg 39%
    22:00 -2°C° 0 mm 7 mps 766 mmHg 41%
    23:00 -2°C° 0 mm 7 mps 766 mmHg 40%
    Show more